Wind_Speed
15 14 14 13 12 11 10 10 10 10 11 9 8 6 4 5 5 6 10 3 7 9 8 10 10 11 11 7 5 7 3 7 5 6 4 5 10 5 12 13 7 3 17 20 22
18 17 16 15 14 12 12 10 10 10 9 7 6 3 3 3 9 14 10 8 9 12 11 12 11 8 13 4 2 9 5 9 9 9 10 6 3 10 12 13 10 12 20 24 21
18 19 19 17 15 13 12 10 9 9 8 5 3 2 3 2 10 8 13 10 12 13 12 12 9 9 13 6 2 3 4 3 9 7 13 1 6 4 11 6 14 15 19 20 19
18 19 19 17 15 13 12 10 8 7 6 5 4 3 2 5 2 8 6 12 13 9 10 12 12 13 9 3 6 2 5 4 9 10 10 10 2 3 9 6 12 18 18 17 17
20 20 20 19 16 15 14 11 8 6 5 4 4 2 2 9 6 5 10 11 11 9 12 12 11 9 11 2 3 6 7 9 12 11 9 5 4 4 6 6 8 18 16 17 15
22 22 22 21 19 17 14 12 8 6 5 4 3 3 6 12 6 8 11 11 11 11 11 11 8 6 9 4 4 7 10 10 9 11 5 4 2 4 5 9 13 17 17 15 15
24 23 25 24 23 19 15 11 8 6 4 4 4 4 11 3 3 7 11 13 11 11 10 10 6 11 5 4 7 11 10 12 11 10 5 9 7 4 10 12 14 16 15 12 12
26 25 28 25 26 20 14 9 8 8 5 4 4 6 2 3 3 6 11 13 10 9 10 3 9 14 8 6 6 9 9 4 11 13 13 9 10 3 10 4 11 15 12 13 13
27 27 28 28 28 20 10 6 4 4 5 4 4 9 5 7 11 9 10 14 14 11 8 5 11 15 6 14 14 8 6 8 10 9 13 9 3 8 5 7 9 15 16 12 11
27 28 28 28 29 17 4 2 1 5 3 5 12 9 8 9 10 9 8 9 15 13 11 12 9 13 12 15 4 4 10 5 13 10 15 15 11 14 10 14 8 12 16 15 14
28 29 29 29 28 10 3 2 6 7 13 15 2 6 9 10 10 11 11 14 15 14 15 15 12 14 18 5 5 11 13 1 7 11 11 12 14 15 15 15 12 6 13 18 16
28 28 29 28 24 4 5 8 7 7 9 12 11 7 2 12 10 12 14 12 13 15 17 11 14 15 13 8 8 9 4 3 5 8 9 8 12 18 17 15 14 12 12 12 17
28 28 29 28 15 5 9 11 3 10 7 12 12 13 13 10 11 15 15 15 13 16 17 14 14 14 3 9 12 11 8 3 3 6 10 5 14 15 19 16 14 15 15 11 10
30 28 29 29 5 7 11 3 6 7 6 16 14 10 14 12 9 12 17 10 10 14 14 13 17 6 10 13 13 18 12 5 4 10 2 19 2 10 17 15 19 19 19 17 13
29 29 27 22 15 8 5 5 8 8 6 14 15 16 15 13 13 11 14 11 12 12 10 15 13 14 14 16 15 15 9 3 6 11 13 13 5 3 13 16 16 16 19 18 20
30 30 27 4 7 11 8 7 8 7 9 11 11 14 16 17 10 12 13 12 10 9 12 18 6 12 16 15 16 17 7 7 10 14 10 10 7 14 10 9 14 19 14 15 17
32 26 20 9 4 4 5 8 7 10 6 11 15 17 18 15 12 12 15 15 11 11 14 15 14 11 11 12 16 17 13 11 10 11 8 4 7 9 15 3 7 9 6 5 8
32 18 9 11 6 6 9 9 12 7 16 4 15 17 18 15 14 16 16 15 17 19 12 12 16 17 11 18 11 17 18 12 7 4 9 5 5 7 10 8 7 7 7 6 6
28 7 6 2 7 7 8 12 11 13 6 5 11 15 19 18 10 16 16 15 16 16 16 7 7 17 16 16 12 16 18 22 10 20 12 11 4 12 12 9 10 9 7 6 4
18 10 5 5 8 11 9 17 16 8 6 8 16 16 16 18 15 14 14 14 14 14 18 5 8 13 11 12 13 12 11 13 10 10 11 7 7 6 10 10 10 9 8 6 4
9 5 6 2 9 8 12 17 17 10 8 12 14 20 14 18 20 17 13 10 14 14 15 14 10 4 12 12 14 12 12 12 12 11 9 9 7 9 11 13 9 8 5 6 4
8 4 6 7 7 10 12 18 3 10 8 14 10 16 13 14 17 13 17 13 14 16 19 16 10 12 16 19 17 11 16 17 9 13 9 10 5 6 7 6 8 9 6 4 2
5 7 6 9 7 9 12 9 11 13 16 12 16 14 13 14 10 15 19 9 5 15 11 13 12 12 6 13 13 12 13 12 12 11 13 12 6 8 10 9 8 10 7 5 3
5 4 6 7 10 12 13 9 14 14 15 15 14 14 14 14 15 12 15 8 5 15 7 8 14 16 13 7 8 18 18 16 15 9 9 9 13 13 11 11 11 9 8 7 4
5 1 5 4 4 7 10 12 11 13 12 12 15 18 18 17 16 17 17 16 12 8 12 15 16 20 19 18 13 12 16 17 14 16 14 10 6 15 13 9 11 10 9 8 6
5 5 5 11 11 11 11 13 15 15 12 10 14 16 15 18 16 16 18 19 20 12 14 18 17 20 20 19 17 13 10 9 11 12 13 15 7 9 10 7 8 9 9 9 7
8 11 6 9 10 11 12 11 9 7 9 13 16 12 7 6 10 13 17 13 10 10 10 17 17 18 17 23 15 14 15 12 12 14 12 11 7 8 8 7 8 10 10 9 7
Wind_Direction
11 7 0 353 345 335 326 322 320 319 317 311 301 294 267 257 268 239 234 170 194 189 187 201 215 225 227 222 207 241 344 193 193 156 113 209 153 96 101 141 100 134 138 138 146
17 11 6 0 356 350 338 327 323 320 324 324 309 286 255 257 267 241 221 237 213 187 212 202 210 217 240 240 150 269 327 24 60 119 154 225 183 144 145 117 115 96 108 135 152
16 13 8 1 354 347 339 329 325 329 334 341 330 294 259 245 254 160 194 219 188 190 240 231 282 250 275 259 57 13 20 73 90 104 140 138 121 208 149 132 127 135 141 149 156
15 11 5 2 356 345 336 327 320 323 329 325 322 317 247 256 209 86 174 177 176 203 243 231 243 242 261 276 63 233 61 71 112 128 151 144 278 154 55 202 109 134 149 153 165
13 8 5 359 353 343 331 321 310 309 317 314 316 331 297 221 71 130 161 170 184 216 232 229 245 254 277 352 142 101 105 109 127 106 91 133 148 73 162 122 132 138 152 163 169
9 6 4 358 350 340 328 314 298 294 299 294 299 302 245 245 107 146 162 174 197 214 221 240 264 355 294 321 5 109 122 131 149 136 115 107 10 250 197 151 140 150 158 166 164
7 4 2 357 350 340 326 306 286 277 272 270 274 268 255 42 141 172 187 196 204 220 237 226 286 264 285 142 116 151 152 151 144 138 117 84 347 235 271 158 157 164 156 159 158
3 1 359 356 349 339 326 300 282 267 248 240 258 249 323 131 190 195 195 201 200 217 257 210 255 274 264 136 191 208 131 288 132 143 144 132 211 103 283 146 175 166 150 160 159
357 356 356 354 348 339 327 311 298 234 207 199 243 227 182 160 201 189 197 199 195 203 219 249 253 247 213 225 197 178 208 161 135 172 145 167 132 214 201 214 219 171 164 160 178
352 351 351 352 346 337 328 303 126 122 191 241 268 260 177 204 162 161 188 199 185 186 206 224 230 233 231 240 151 64 319 136 152 161 172 193 149 171 194 219 168 252 163 175 180
348 346 346 348 343 332 289 259 211 200 213 254 217 255 139 133 156 182 170 176 184 192 206 205 223 223 229 178 86 158 144 144 101 138 187 202 172 173 181 224 172 242 181 180 187
345 343 342 344 339 319 272 257 40 353 294 211 234 248 251 161 187 166 181 198 189 202 216 181 234 241 266 322 186 166 302 66 100 149 237 186 170 167 183 199 194 197 229 203 191
342 340 338 339 333 260 263 289 317 330 261 196 197 208 189 206 212 176 198 221 196 214 205 237 213 241 208 239 273 251 195 187 326 177 228 223 181 165 172 193 202 198 228 194 212
341 338 336 335 299 327 267 195 289 317 270 172 184 204 183 206 217 172 196 208 210 229 221 227 252 201 222 245 227 251 224 162 238 261 114 314 198 247 165 188 189 194 201 209 198
338 337 330 327 302 267 8 274 306 265 274 139 156 155 181 206 115 191 183 206 238 216 224 223 228 234 227 229 230 257 210 235 266 259 156 248 114 207 213 188 196 209 202 197 188
334 334 323 300 244 265 288 267 262 231 250 159 147 189 185 211 190 138 185 224 249 228 217 264 205 211 225 223 236 243 222 227 226 245 258 203 260 197 168 187 175 178 210 202 181
330 327 306 275 276 307 255 231 222 242 86 171 176 182 198 192 181 177 191 203 211 214 210 214 219 220 242 229 202 222 220 227 219 221 241 126 272 132 154 154 130 146 170 204 221
328 320 286 233 264 261 232 220 242 256 239 71 192 189 206 191 204 189 195 217 222 248 263 203 188 205 184 229 186 211 226 242 208 332 181 163 237 164 128 119 120 132 132 154 205
332 299 243 209 235 231 229 222 224 251 289 215 215 218 203 219 220 202 217 221 218 215 254 208 266 166 189 223 242 191 228 257 181 241 224 211 204 158 157 164 152 158 156 167 186
324 278 195 299 206 208 225 241 244 265 326 293 263 209 230 208 198 236 214 218 229 195 242 300 171 178 189 235 237 274 220 240 219 254 259 300 175 117 153 177 167 165 181 143 145
287 262 108 168 182 215 225 232 236 243 232 261 256 259 229 256 205 220 229 213 207 189 208 258 259 166 164 207 216 203 236 258 292 288 296 232 224 164 168 148 174 184 138 143 146
290 266 116 174 221 219 232 240 269 265 231 252 265 289 263 255 265 216 224 235 180 230 192 226 257 189 202 206 224 272 209 226 227 229 264 303 77 90 105 136 172 134 152 132 87
290 291 168 219 253 230 234 259 265 256 253 235 243 248 253 261 263 262 249 232 250 220 221 224 240 254 219 173 203 237 253 267 275 275 164 267 113 124 123 121 133 148 175 163 148
280 268 177 213 265 287 300 259 256 217 262 274 263 264 260 247 256 256 248 223 224 249 14 288 250 245 238 355 310 205 229 239 238 246 243 273 127 152 146 153 158 159 168 160 159
245 340 3 268 202 297 299 285 291 260 208 266 237 245 244 243 246 239 243 260 191 217 250 243 249 267 273 182 254 197 203 217 229 258 278 304 298 147 150 169 174 161 169 165 165
313 341 354 284 277 266 256 255 254 261 271 254 234 262 231 244 259 258 242 249 247 199 211 230 239 253 261 269 209 240 239 254 256 226 265 279 274 312 107 126 169 161 172 181 166
11 291 270 290 268 256 259 276 271 307 296 279 295 302 266 259 311 323 317 306 297 278 264 233 238 243 249 260 232 230 248 253 256 250 245 249 270 142 136 166 182 171 181 190 186
Height
799 797 794 792 790 787 785 783 782 780 778 776 774 773 773 772 772 772 767 765 765 766 767 765 764 759 754 744 749 749 778 786 789 785 792 768 768 759 757 766 764 765 769 780 792
800 797 794 792 789 787 784 782 780 778 777 775 774 773 772 771 771 765 762 763 765 766 766 762 757 754 745 741 744 751 774 770 756 775 786 772 771 761 765 767 772 771 775 785 792
801 798 794 791 788 786 783 781 779 778 776 774 773 772 771 771 766 751 758 762 764 765 765 759 754 751 745 740 745 749 767 758 766 765 773 780 769 760 765 775 766 779 781 787 792
801 798 794 791 788 785 782 780 778 777 775 774 773 771 771 774 763 754 758 761 763 766 764 759 753 751 746 749 741 763 759 758 768 772 772 783 778 768 768 786 760 771 780 786 790
801 798 794 790 787 784 781 778 776 775 774 773 772 771 772 763 750 757 760 762 764 765 760 754 751 746 747 744 744 754 762 762 765 776 782 780 783 775 772 763 763 771 779 783 785
801 797 793 789 785 782 779 776 774 773 773 772 771 770 770 760 754 759 761 763 762 761 757 753 747 744 745 743 752 747 757 762 764 776 785 791 791 777 769 763 767 772 778 781 782
800 796 792 788 784 780 776 774 772 771 771 771 770 770 762 752 755 758 759 760 760 759 753 752 751 748 738 743 741 750 762 757 760 768 791 792 803 788 773 765 770 771 775 778 782
800 796 791 786 781 777 773 771 770 770 769 770 769 771 751 754 755 757 757 757 758 759 756 753 754 748 741 737 743 757 754 784 762 767 784 795 816 801 771 771 773 771 780 779 784
799 794 790 785 779 775 772 770 769 768 768 768 769 764 749 754 754 753 755 754 757 757 758 757 753 746 740 747 751 749 786 770 768 755 774 787 814 795 786 781 777 771 777 782 786
798 793 788 783 777 773 771 770 768 768 768 770 767 763 748 743 747 751 752 750 753 754 756 755 751 751 745 740 797 809 773 752 777 763 763 780 788 788 788 779 785 771 774 780 785
796 791 786 782 776 772 771 771 769 765 761 744 740 738 738 741 748 748 750 749 749 752 762 752 760 760 739 731 746 755 777 754 751 752 761 766 771 779 780 775 775 768 770 774 781
795 789 784 779 774 771 769 760 755 758 753 734 736 736 736 741 746 743 748 749 752 761 749 755 764 737 726 732 738 749 759 760 752 749 754 757 766 768 775 774 772 776 775 771 770
793 788 782 776 772 770 765 760 760 758 750 729 730 733 736 737 738 740 742 741 750 755 749 754 742 732 740 746 750 742 750 755 759 750 749 754 764 759 767 770 770 768 767 767 775
791 787 782 774 773 766 760 760 761 759 756 732 733 728 728 731 738 726 735 737 743 750 744 749 733 746 750 755 746 751 731 743 758 761 804 781 814 759 754 763 764 765 766 765 768
789 785 780 777 772 764 763 762 761 757 774 726 722 714 721 731 725 733 731 735 746 746 744 749 746 747 756 750 740 745 738 741 749 754 774 786 786 806 750 762 757 752 748 753 759
786 782 776 774 771 765 764 762 760 770 767 726 718 729 730 726 725 727 734 730 727 737 740 736 725 733 738 734 734 729 741 743 744 746 768 735 747 773 756 741 735 740 743 745 754
782 778 773 772 761 764 763 760 768 765 713 724 727 722 727 730 729 735 743 747 750 764 756 743 739 730 727 738 730 737 749 767 772 764 763 742 753 744 745 734 731 739 741 742 743
776 771 768 766 765 764 762 761 772 727 719 702 709 715 731 719 725 730 738 744 734 732 733 746 758 735 724 731 739 741 740 750 795 784 775 742 760 742 727 727 730 736 740 748 751
771 765 764 761 763 764 758 764 748 727 710 713 714 721 725 715 718 724 730 728 720 725 742 734 736 713 717 717 718 738 749 716 752 748 759 772 740 727 724 731 736 739 745 748 749
773 761 754 760 760 760 758 756 727 710 717 715 727 718 727 719 724 722 722 712 716 711 709 716 739 717 720 715 715 721 715 746 734 783 785 745 743 747 742 738 735 740 745 746 751
771 751 753 757 758 752 754 738 723 710 719 726 722 716 712 710 709 719 720 705 704 709 709 713 720 734 719 733 732 733 738 729 726 729 752 759 747 708 722 726 734 737 740 745 748
765 752 751 755 754 738 737 726 733 716 712 722 717 715 713 708 709 711 712 705 693 699 719 711 713 734 729 708 705 712 721 723 743 757 735 738 748 713 716 721 725 736 745 747 750
765 750 748 750 749 731 724 724 724 726 720 720 723 715 709 717 727 713 704 688 691 701 713 710 727 739 745 720 713 724 716 714 713 713 753 758 750 718 724 729 730 742 747 750 752
769 749 738 741 734 738 730 729 729 717 723 716 717 713 718 722 713 719 709 695 698 700 712 705 714 723 738 732 725 728 723 715 719 735 731 733 739 733 733 735 739 742 746 748 752
763 747 750 739 736 737 735 735 732 730 717 716 722 722 722 728 721 721 712 703 701 709 707 709 729 717 704 709 711 706 712 714 725 723 733 722 729 724 725 729 731 736 743 748 752
773 767 753 750 744 747 747 740 736 729 723 725 727 717 715 725 719 721 711 710 708 695 708 703 726 717 719 696 708 713 705 708 711 714 719 717 723 706 712 718 728 735 742 747 750
780 777 773 756 746 741 735 730 732 729 730 726 723 723 724 720 713 709 703 702 700 708 706 709 710 719 732 713 705 724 710 707 708 706 711 727 717 706 724 726 730 735 741 744 747